Terminal Aerodrome Forecast
Issued by NWS

Home | Current Version | Previous Version | Text Only | Print | Product List | Glossary On
Versions: 1 2 3 4 5 6 7 8 9 10 11 12 13 14 15 16 17 18 19 20 21 22 23 24 25 26 27
834
FTUS43 KBIS 131734 AAF
TAFDIK
TAF AMD
KDIK 131734Z 1318/1412 17018G26KT 5SM -SN BKN007
      TEMPO 1318/1320 1SM -SN OVC007
     FM132300 20010KT 1SM -SN OVC008
     FM140200 24010KT 3SM -SN OVC010
     FM140700 29017KT P6SM VCSH OVC010=

USA.gov is the U.S. government's official web portal to all federal, state and local government web resources and services.